VK3GY-13 Weather Reports


time (UTC)temp
C
wind
direction
speed
KPH
gust
KPH
rain 1hr
cm
rain 24hr
cm
rain mn
cm
humidity
%
barometer
mb
20260506062008 16 332 12.9 19.3 0.00 0.00 0.00 63 1013.0
20260506061009 16 327 9.7 20.9 0.00 0.00 0.00 63 1013.0
20260506051009 17 337 9.7 24.1 0.00 0.00 0.00 62 1014.0
20260506045009 18 315 12.9 29.0 0.00 0.00 0.00 58 1014.3
20260506044009 17 309 11.3 25.7 0.00 0.00 0.00 59 1014.4
20260506043009 17 309 16.1 29.0 0.00 0.00 0.00 61 1014.7
20260506042009 17 302 11.3 27.4 0.00 0.00 0.00 62 1014.7
20260506041009 17 312 11.3 29.0 0.00 0.00 0.00 61 1014.9
20260506040009 17 347 9.7 24.1 0.00 0.00 0.00 61 1015.1
20260506035008 17 319 11.3 24.1 0.00 0.00 0.00 61 1015.2
20260506034009 17 333 11.3 24.1 0.00 0.00 0.00 61 1015.4
20260506033009 16 323 12.9 25.7 0.00 0.00 0.00 61 1015.5
20260506032009 16 327 11.3 24.1 0.00 0.00 0.00 63 1015.6
20260506031009 16 339 9.7 25.7 0.00 0.00 0.00 62 1015.9
20260506030009 16 312 9.7 24.1 0.00 0.00 0.00 62 1016.2
20260506025008 16 313 9.7 32.2 0.00 0.00 0.00 61 1016.3
20260506024009 16 301 14.5 25.7 0.00 0.00 0.00 61 1016.6
20260506023009 16 310 11.3 20.9 0.00 0.00 0.00 62 1016.7
20260506022009 16 321 9.7 25.7 0.00 0.00 0.00 64 1017.0
20260506021009 15 308 9.7 25.7 0.00 0.00 0.00 64 1017.2
20260506020009 15 317 11.3 19.3 0.00 0.00 0.00 64 1017.5
20260506015009 15 297 11.3 20.9 0.00 0.00 0.00 64 1017.6
20260506014008 15 306 6.4 20.9 0.00 0.00 0.00 64 1017.8
20260506013009 15 314 8.0 27.4 0.00 0.00 0.00 63 1018.0
20260506012008 15 293 12.9 20.9 0.00 0.00 0.00 63 1018.0
20260506011009 15 289 14.5 22.5 0.00 0.00 0.00 64 1018.1
20260506010009 15 291 12.9 19.3 0.00 0.00 0.00 64 1018.2
20260506005009 15 320 9.7 19.3 0.00 0.00 0.00 65 1018.2
20260506004009 15 299 9.7 24.1 0.00 0.00 0.00 66 1018.3
20260506003008 15 311 9.7 24.1 0.00 0.00 0.00 66 1018.4
20260506002010 15 318 6.4 19.3 0.00 0.00 0.00 67 1018.6
20260506001009 15 318 6.4 19.3 0.00 0.00 0.00 68 1018.6
20260506000009 15 297 8.0 19.3 0.00 0.00 0.00 68 1018.7
20260505235009 15 314 8.0 19.3 0.00 0.00 0.00 68 1018.7
20260505234009 15 299 6.4 16.1 0.00 0.00 0.00 68 1018.9
20260505233009 15 295 11.3 16.1 0.00 0.00 0.00 68 1018.9
20260505232009 15 322 6.4 14.5 0.00 0.00 0.00 69 1019.0
20260505231008 14 306 6.4 14.5 0.00 0.00 0.00 70 1019.1
20260505230008 14 293 8.0 20.9 0.00 0.00 0.00 71 1019.1
20260505225009 14 330 3.2 16.1 0.00 0.00 0.00 72 1019.1
20260505224009 13 330 6.4 16.1 0.00 0.00 0.00 74 1019.1
20260505223009 13 325 4.8 12.9 0.00 0.00 0.00 76 1019.2
20260505222009 13 329 3.2 8.0 0.00 0.00 0.00 76 1019.2
20260505221009 13 328 4.8 9.7 0.00 0.00 0.00 76 1019.2
20260505220009 13 331 3.2 8.0 0.00 0.00 0.00 77 1019.2
20260505215009 12 331 3.2 9.7 0.00 0.00 0.00 77 1019.1
20260505214009 12 333 3.2 9.7 0.00 0.00 0.00 77 1019.2
20260505213009 12 333 3.2 9.7 0.00 0.00 0.00 77 1019.1
20260505212008 12 331 3.2 9.7 0.00 0.00 0.00 78 1019.1
20260505211009 12 329 3.2 9.7 0.00 0.00 0.00 78 1019.1
20260505210009 12 330 3.2 9.7 0.00 0.00 0.00 78 1019.1
20260505205009 12 329 4.8 8.0 0.00 0.00 0.00 78 1019.1
20260505204008 12 329 3.2 8.0 0.00 0.00 0.00 78 1019.1
20260505203008 12 329 1.6 8.0 0.00 0.00 0.00 78 1019.1
20260505202010 12 329 4.8 9.7 0.00 0.00 0.00 78 1019.1
20260505201009 12 326 3.2 12.9 0.00 0.00 0.00 79 1019.1
20260505200008 12 321 3.2 12.9 0.00 0.00 0.00 79 1019.2
20260505195009 12 335 4.8 14.5 0.00 0.00 0.00 80 1019.2
20260505194009 12 323 4.8 9.7 0.00 0.00 0.00 80 1019.2
20260505193010 12 313 3.2 9.7 0.00 0.00 0.00 81 1019.3
20260505192009 12 288 3.2 8.0 0.00 0.00 0.00 82 1019.4
20260505191009 12 284 3.2 4.8 0.00 0.00 0.00 83 1019.5
20260505190009 12 284 3.2 11.3 0.00 0.00 0.00 83 1019.5
20260505185010 12 281 3.2 4.8 0.00 0.00 0.00 84 1019.5
20260505184008 12 281 1.6 9.7 0.00 0.00 0.00 84 1019.6
20260505183009 12 281 4.8 11.3 0.00 0.00 0.00 84 1019.5
20260505182009 12 265 1.6 4.8 0.00 0.00 0.00 85 1019.5
20260505181009 12 265 1.6 4.8 0.00 0.00 0.00 85 1019.4
20260505180009 12 265 1.6 4.8 0.00 0.00 0.00 85 1019.5
20260505175009 12 264 3.2 4.8 0.00 0.00 0.00 85 1019.5
20260505174009 12 264 1.6 4.8 0.00 0.00 0.00 85 1019.5
20260505173009 12 263 3.2 4.8 0.00 0.00 0.00 85 1019.6
20260505172009 12 263 1.6 4.8 0.00 0.00 0.00 85 1019.7
20260505171009 12 263 1.6 4.8 0.00 0.00 0.00 85 1019.7
20260505170009 12 263 1.6 3.2 0.00 0.00 0.00 85 1019.8
20260505165009 12 263 1.6 3.2 0.00 0.00 0.00 85 1019.9
20260505164009 12 263 0.0 4.8 0.00 0.00 0.00 85 1020.1
20260505163009 12 263 1.6 4.8 0.00 0.00 0.00 84 1020.1
20260505162011 12 263 1.6 4.8 0.00 0.00 0.00 84 1020.2
20260505161009 12 263 1.6 4.8 0.00 0.00 0.00 84 1020.3
20260505153009 12 262 3.2 4.8 0.00 0.00 0.00 84 1020.6
20260505152009 12 262 1.6 4.8 0.00 0.00 0.00 84 1020.8
20260505151009 12 262 0.0 1.6 0.00 0.00 0.00 84 1020.8
20260505125009 12 257 1.6 4.8 0.00 0.00 0.00 82 1021.0
20260505124009 13 257 1.6 4.8 0.00 0.00 0.00 82 1021.1
20260505123009 13 257 1.6 4.8 0.00 0.00 0.00 81 1021.2
20260505122009 13 257 1.6 4.8 0.00 0.00 0.00 81 1021.2
20260505121009 13 257 0.0 1.6 0.00 0.00 0.00 82 1021.3
20260505120009 13 257 0.0 4.8 0.00 0.00 0.00 82 1021.3
20260505115009 13 257 1.6 4.8 0.00 0.00 0.00 82 1021.3
20260505114009 13 257 0.0 4.8 0.00 0.00 0.00 82 1021.3
20260505113009 13 197 3.2 4.8 0.00 0.00 0.00 82 1021.3
20260505112009 13 197 1.6 3.2 0.00 0.00 0.00 82 1021.3
20260505111009 13 197 0.0 4.8 0.00 0.00 0.00 82 1021.4